datetime,flow
1967-05-19,260.0
1967-05-20,290.0
1967-05-21,298.0
1967-05-22,316.0
1967-05-23,329.0
1967-05-24,311.0
1967-05-25,281.0
1967-05-26,240.0
1967-05-27,202.0
1967-05-28,190.0
1967-05-29,181.0
1967-05-30,168.0
1967-05-31,154.0
1967-06-01,142.0
1967-06-02,134.0
1967-06-03,127.0
1967-06-04,122.0
1967-06-05,116.0
1967-06-06,115.0
1967-06-07,110.0
1967-06-08,108.0
1967-06-09,105.0
1967-06-10,98.0
1967-06-11,92.0
1967-06-12,90.0
1967-06-13,94.0
1967-06-14,98.0
1967-06-15,103.0
1967-06-16,105.0
1967-06-17,109.0
1967-06-18,108.0
1967-06-19,105.0
1967-06-20,103.0
1967-06-21,101.0
1967-06-22,96.0
1967-06-23,91.0
1967-06-24,84.0
1967-06-25,80.0
1967-06-26,76.0
1967-06-27,73.0
1967-06-28,69.0
1967-06-29,64.0
1967-06-30,61.0
1967-07-01,57.0
1967-07-02,56.0
1967-07-03,54.0
1967-07-04,51.0
1967-07-05,47.0
1967-07-06,49.0
1967-07-07,47.0
1967-07-08,44.0
1967-07-09,40.0
1967-07-10,38.0
1967-07-11,37.0
1967-07-12,37.0
1967-07-13,34.0
1967-07-14,40.0
1967-07-15,47.0
1967-07-16,40.0
1967-07-17,37.0
1967-07-18,32.0
1967-07-19,31.0
1967-07-20,30.0
1967-07-21,29.0
1967-07-22,29.0
1967-07-23,29.0
1967-07-24,28.0
1967-07-25,26.0
1967-07-26,25.0
1967-07-27,22.0
1967-07-28,22.0
1967-07-29,20.0
1967-07-30,20.0
1967-07-31,20.0
1967-08-01,19.0
1967-08-02,20.0
1967-08-03,18.0
1967-08-04,17.0
1967-08-05,18.0
1967-08-06,17.0
1967-08-07,17.0
1967-08-08,22.0
1967-08-09,18.0
1967-08-10,17.0
1967-08-11,16.0
1967-08-12,16.0
1967-08-13,15.0
1967-08-14,14.0
1967-08-15,13.0
1967-08-16,12.0
1967-08-17,12.0
1967-08-18,12.0
1967-08-19,12.0
1967-08-20,12.0
1967-08-21,11.0
1967-08-22,10.0
1967-08-23,9.4
1967-08-24,8.8
1967-08-25,8.3
1967-08-26,8.8
1967-08-27,8.8
1967-08-28,9.4
1967-08-29,9.4
1967-08-30,9.4
1967-08-31,9.4
1967-09-01,8.8
1967-09-02,8.3
1967-09-03,7.8
1967-09-04,7.3
1967-09-05,6.8
1967-09-06,6.4
1967-09-07,6.0
1967-09-08,8.3
1967-09-09,11.0
1967-09-10,8.3
1967-09-11,7.8
1967-09-12,7.3
1967-09-13,7.8
1967-09-14,7.8
1967-09-15,7.8
1967-09-16,7.8
1967-09-17,7.3
1967-09-18,7.3
1967-09-19,7.3
1967-09-20,7.3
1967-09-21,7.3
1967-09-22,7.8
1967-09-23,9.4
1967-09-24,7.8
1967-09-25,8.3
1967-09-26,8.8
1967-09-27,8.3
1967-09-28,7.3
1967-09-29,7.3
1967-09-30,7.3
1967-10-01,7.4
1967-10-02,7.8
1967-10-03,7.5
1967-10-04,7.4
1967-10-05,8.3
1967-10-06,8.4
1967-10-07,7.5
1967-10-08,7.4
1967-10-09,7.4
1967-10-10,7.3
1967-10-11,7.2
1967-10-12,7.2
1967-10-13,7.3
1967-10-14,7.6
1967-10-15,7.7
1967-10-16,7.0
1967-10-17,6.8
1967-10-18,6.8
1967-10-19,7.0
1967-10-20,6.9
1967-10-21,7.1
1967-10-22,6.8
1967-10-23,7.1
1967-10-24,7.2
1967-10-25,7.3
1967-10-26,7.5
1967-10-27,7.6
1967-10-28,8.4
1967-10-29,9.0
1967-10-30,8.6
1967-10-31,7.7
1967-11-01,7.5
1967-11-02,7.5
1967-11-03,7.0
1967-11-04,7.4
1967-11-05,8.4
1967-11-06,8.3
1967-11-07,7.8
1967-11-08,7.2
1967-11-09,5.9
1967-11-10,6.3
1967-11-11,6.4
1967-11-12,7.1
1967-11-13,7.5
1967-11-14,7.8
1967-11-15,8.0
1967-11-16,8.1
1967-11-17,7.9
1967-11-18,8.3
1967-11-19,8.8
1967-11-20,9.7
1967-11-21,11.0
1967-11-22,7.3
1967-11-23,6.1
1967-11-24,5.4
1967-11-25,5.8
1967-11-26,4.6
1967-11-27,4.2
1967-11-28,3.9
1967-11-29,4.8
1967-11-30,4.9
1967-12-01,5.1
1967-12-02,5.2
1967-12-03,5.2
1967-12-04,5.2
1967-12-05,5.2
1967-12-06,5.2
1967-12-07,5.1
1967-12-08,5.1
1967-12-09,5.0
1967-12-10,5.0
1967-12-11,5.0
1967-12-12,5.0
1967-12-13,5.0
1967-12-14,5.0
1967-12-15,5.0
1967-12-16,5.0
1967-12-17,5.0
1967-12-18,5.0
1967-12-19,5.0
1967-12-20,5.0
1967-12-21,5.0
1967-12-22,5.1
1967-12-23,5.2
1967-12-24,5.4
1967-12-25,5.6
1967-12-26,5.6
1967-12-27,5.6
1967-12-28,5.6
1967-12-29,5.5
1967-12-30,5.4
1967-12-31,5.2
1968-01-01,5.2
1968-01-02,5.2
1968-01-03,5.1
1968-01-04,5.1
1968-01-05,5.0
1968-01-06,5.0
1968-01-07,5.0
1968-01-08,5.0
1968-01-09,5.0
1968-01-10,5.0
1968-01-11,5.0
1968-01-12,5.0
1968-01-13,5.0
1968-01-14,5.0
1968-01-15,5.0
1968-01-16,5.0
1968-01-17,5.0
1968-01-18,5.0
1968-01-19,5.0
1968-01-20,5.0
1968-01-21,5.0
1968-01-22,5.0
1968-01-23,5.0
1968-01-24,5.0
1968-01-25,5.0
1968-01-26,5.0
1968-01-27,5.0
1968-01-28,5.0
1968-01-29,5.0
1968-01-30,5.0
1968-01-31,5.0
1968-02-01,5.0
1968-02-02,5.0
1968-02-03,5.0
1968-02-04,5.0
1968-02-05,5.1
1968-02-06,5.2
1968-02-07,5.2
1968-02-08,5.2
1968-02-09,5.2
1968-02-10,5.3
1968-02-11,5.3
1968-02-12,5.3
1968-02-13,5.4
1968-02-14,5.4
1968-02-15,5.5
1968-02-16,5.5
1968-02-17,5.6
1968-02-18,5.5
1968-02-19,5.1
1968-02-20,4.9
1968-02-21,5.0
1968-02-22,5.8
1968-02-23,7.1
1968-02-24,7.5
1968-02-25,7.8
1968-02-26,7.8
1968-02-27,7.1
1968-02-28,7.0
1968-02-29,6.8
1968-03-01,6.6
1968-03-02,6.6
1968-03-03,6.8
1968-03-04,7.1
1968-03-05,7.5
1968-03-06,8.0
1968-03-07,8.8
1968-03-08,8.5
1968-03-09,8.0
1968-03-10,8.5
1968-03-11,8.3
1968-03-12,7.9
1968-03-13,7.8
1968-03-14,9.9
1968-03-15,9.8
1968-03-16,9.8
1968-03-17,9.8
1968-03-18,9.9
1968-03-19,10.0
1968-03-20,11.0
1968-03-21,12.0
1968-03-22,13.0
1968-03-23,14.0
1968-03-24,14.0
1968-03-25,15.0
1968-03-26,15.0
1968-03-27,19.0
1968-03-28,21.0
1968-03-29,22.0
1968-03-30,27.0
1968-03-31,33.0
1968-04-01,38.0
1968-04-02,37.0
1968-04-03,28.0
1968-04-04,26.0
1968-04-05,25.0
1968-04-06,24.0
1968-04-07,23.0
1968-04-08,21.0
1968-04-09,20.0
1968-04-10,23.0
1968-04-11,28.0
1968-04-12,38.0
1968-04-13,49.0
1968-04-14,42.0
1968-04-15,47.0
1968-04-16,55.0
1968-04-17,53.0
1968-04-18,49.0
1968-04-19,47.0
1968-04-20,47.0
1968-04-21,47.0
1968-04-22,44.0
1968-04-23,42.0
1968-04-24,46.0
1968-04-25,46.0
1968-04-26,46.0
1968-04-27,51.0
1968-04-28,50.0
1968-04-29,59.0
1968-04-30,79.0
1968-05-01,109.0
1968-05-02,138.0
1968-05-03,177.0
1968-05-04,208.0
1968-05-05,231.0
1968-05-06,232.0
1968-05-07,209.0
1968-05-08,200.0
1968-05-09,207.0
1968-05-10,216.0
1968-05-11,231.0
1968-05-12,256.0
1968-05-13,264.0
1968-05-14,247.0
1968-05-15,223.0
1968-05-16,209.0
1968-05-17,197.0
1968-05-18,207.0
1968-05-19,228.0
1968-05-20,263.0
1968-05-21,297.0
1968-05-22,324.0
1968-05-23,330.0
1968-05-24,288.0
1968-05-25,255.0
1968-05-26,234.0
1968-05-27,226.0
1968-05-28,229.0
1968-05-29,235.0
1968-05-30,235.0
1968-05-31,226.0
1968-06-01,206.0
1968-06-02,183.0
1968-06-03,164.0
1968-06-04,151.0
1968-06-05,148.0
1968-06-06,128.0
1968-06-07,114.0
1968-06-08,108.0
1968-06-09,98.0
1968-06-10,93.0
1968-06-11,86.0
1968-06-12,78.0
1968-06-13,73.0
1968-06-14,72.0
1968-06-15,70.0
1968-06-16,66.0
1968-06-17,65.0
1968-06-18,61.0
1968-06-19,60.0
1968-06-20,57.0
1968-06-21,56.0
1968-06-22,54.0
1968-06-23,53.0
1968-06-24,51.0
1968-06-25,49.0
1968-06-26,48.0
1968-06-27,47.0
1968-06-28,46.0
1968-06-29,44.0
1968-06-30,43.0
1968-07-01,40.0
1968-07-02,38.0
1968-07-03,37.0
1968-07-04,36.0
1968-07-05,35.0
1968-07-06,34.0
1968-07-07,33.0
1968-07-08,33.0
1968-07-09,31.0
1968-07-10,30.0
1968-07-11,29.0
1968-07-12,27.0
1968-07-13,25.0
1968-07-14,24.0
1968-07-15,23.0
1968-07-16,23.0
1968-07-17,21.0
1968-07-18,21.0
1968-07-19,20.0
1968-07-20,20.0
1968-07-21,20.0
1968-07-22,23.0
1968-07-23,21.0
1968-07-24,18.0
1968-07-25,17.0
1968-07-26,18.0
1968-07-27,16.0
1968-07-28,21.0
1968-07-29,17.0
1968-07-30,16.0
1968-07-31,15.0
1968-08-01,19.0
1968-08-02,18.0
1968-08-03,17.0
1968-08-04,17.0
1968-08-05,16.0
1968-08-06,14.0
1968-08-07,16.0
1968-08-08,15.0
1968-08-09,15.0
1968-08-10,13.0
1968-08-11,12.0
1968-08-12,11.0
1968-08-13,12.0
1968-08-14,13.0
1968-08-15,11.0
1968-08-16,11.0
1968-08-17,11.0
1968-08-18,14.0
1968-08-19,11.0
1968-08-20,9.6
1968-08-21,8.8
1968-08-22,10.0
1968-08-23,13.0
1968-08-24,10.0
1968-08-25,8.9
1968-08-26,8.6
1968-08-27,8.8
1968-08-28,9.0
1968-08-29,8.2
1968-08-30,7.6
1968-08-31,7.4
1968-09-01,7.1
1968-09-02,7.2
1968-09-03,6.8
1968-09-04,6.9
1968-09-05,7.0
1968-09-06,6.8
1968-09-07,6.7
1968-09-08,6.1
1968-09-09,6.0
1968-09-10,6.0
1968-09-11,6.1
1968-09-12,7.1
1968-09-13,7.0
1968-09-14,7.1
1968-09-15,6.7
1968-09-16,6.4
1968-09-17,6.8
1968-09-18,6.8
1968-09-19,6.7
1968-09-20,6.6
1968-09-21,7.1
1968-09-22,6.9
1968-09-23,6.7
1968-09-24,6.4
1968-09-25,6.4
1968-09-26,6.3
1968-09-27,6.3
1968-09-28,6.0
1968-09-29,6.4
1968-09-30,6.8
1968-10-01,6.5
1968-10-02,6.4
1968-10-03,6.4
1968-10-04,7.2
1968-10-05,7.7
1968-10-06,6.9
1968-10-07,6.6
1968-10-08,6.2
1968-10-09,6.2
1968-10-10,6.3
1968-10-11,6.4
1968-10-12,6.4
1968-10-13,6.5
1968-10-14,6.8
1968-10-15,8.3
1968-10-16,7.6
1968-10-17,7.0
1968-10-18,6.8
1968-10-19,6.7
1968-10-20,6.7
1968-10-21,6.5
1968-10-22,6.4
1968-10-23,6.6
1968-10-24,6.4
1968-10-25,6.4
1968-10-26,6.4
1968-10-27,6.4
1968-10-28,6.2
1968-10-29,6.3
1968-10-30,6.4
1968-10-31,6.7
1968-11-01,6.6
1968-11-02,6.4
1968-11-03,6.5
1968-11-04,7.5
1968-11-05,8.0
1968-11-06,7.2
1968-11-07,6.5
1968-11-08,6.0
1968-11-09,7.4
1968-11-10,7.8
1968-11-11,6.4
1968-11-12,6.3
1968-11-13,6.3
1968-11-14,8.1
1968-11-15,5.5
1968-11-16,6.3
1968-11-17,6.4
1968-11-18,6.6
1968-11-19,6.8
1968-11-20,6.8
1968-11-21,6.8
1968-11-22,6.8
1968-11-23,6.7
1968-11-24,6.2
1968-11-25,5.6
1968-11-26,5.2
1968-11-27,4.8
1968-11-28,4.5
1968-11-29,4.2
1968-11-30,3.9
1968-12-01,3.7
1968-12-02,3.4
1968-12-03,3.2
1968-12-04,3.1
1968-12-05,3.0
1968-12-06,2.5
1968-12-07,2.5
1968-12-08,2.5
1968-12-09,2.5
1968-12-10,2.5
1968-12-11,2.5
1968-12-12,2.5
1968-12-13,2.5
1968-12-14,2.5
1968-12-15,2.5
1968-12-16,2.3
1968-12-17,2.1
1968-12-18,2.1
1968-12-19,2.1
1968-12-20,2.1
1968-12-21,2.1
1968-12-22,2.1
1968-12-23,2.1
1968-12-24,2.1
1968-12-25,2.1
1968-12-26,2.1
1968-12-27,2.1
1968-12-28,2.1
1968-12-29,2.1
1968-12-30,2.1
1968-12-31,2.1
1969-01-01,2.0
1969-01-02,2.0
1969-01-03,2.0
1969-01-04,2.0
1969-01-05,2.0
1969-01-06,2.0
1969-01-07,2.0
1969-01-08,2.0
1969-01-09,2.0
1969-01-10,2.0
1969-01-11,2.0
1969-01-12,2.0
1969-01-13,2.0
1969-01-14,2.0
1969-01-15,2.0
1969-01-16,2.0
1969-01-17,2.0
1969-01-18,2.0
1969-01-19,2.0
1969-01-20,2.0
1969-01-21,2.0
1969-01-22,2.0
1969-01-23,2.0
1969-01-24,2.0
1969-01-25,2.0
1969-01-26,2.0
1969-01-27,2.0
1969-01-28,2.0
1969-01-29,2.0
1969-01-30,2.0
1969-01-31,2.0
1969-02-01,1.9
1969-02-02,1.9
1969-02-03,1.9
1969-02-04,1.9
1969-02-05,1.9
1969-02-06,1.9
1969-02-07,1.9
1969-02-08,1.9
1969-02-09,1.9
1969-02-10,1.9
1969-02-11,1.9
1969-02-12,1.9
1969-02-13,1.9
1969-02-14,1.9
1969-02-15,1.9
1969-02-16,1.9
1969-02-17,1.9
1969-02-18,1.9
1969-02-19,1.9
1969-02-20,1.9
1969-02-21,1.9
1969-02-22,1.9
1969-02-23,1.9
1969-02-24,1.9
1969-02-25,1.9
1969-02-26,1.9
1969-02-27,1.9
1969-02-28,1.9
1969-03-01,1.6
1969-03-02,1.6
1969-03-03,1.6
1969-03-04,1.6
1969-03-05,1.6
1969-03-06,1.6
1969-03-07,1.6
1969-03-08,1.6
1969-03-09,1.6
1969-03-10,1.6
1969-03-11,1.6
1969-03-12,1.6
1969-03-13,1.6
1969-03-14,1.6
1969-03-15,1.6
1969-03-16,1.6
1969-03-17,1.6
1969-03-18,1.6
1969-03-19,1.8
1969-03-20,2.0
1969-03-21,2.5
1969-03-22,3.2
1969-03-23,6.0
1969-03-24,9.0
1969-03-25,15.0
1969-03-26,22.0
1969-03-27,26.0
1969-03-28,28.0
1969-03-29,31.0
1969-03-30,32.0
1969-03-31,39.0
1969-04-01,51.0
1969-04-02,69.0
1969-04-03,74.0
1969-04-04,80.0
1969-04-05,102.0
1969-04-06,102.0
1969-04-07,93.0
1969-04-08,90.0
1969-04-09,85.0
1969-04-10,100.0
1969-04-11,116.0
1969-04-12,129.0
1969-04-13,136.0
1969-04-14,127.0
1969-04-15,118.0
1969-04-16,108.0
1969-04-17,107.0
1969-04-18,109.0
1969-04-19,113.0
1969-04-20,134.0
1969-04-21,173.0
1969-04-22,219.0
1969-04-23,247.0
1969-04-24,271.0
1969-04-25,250.0
1969-04-26,216.0
1969-04-27,191.0
1969-04-28,180.0
1969-04-29,190.0
1969-04-30,218.0
1969-05-01,244.0
1969-05-02,273.0
1969-05-03,290.0
1969-05-04,298.0
1969-05-05,292.0
1969-05-06,293.0
1969-05-07,322.0
1969-05-08,331.0
1969-05-09,315.0
1969-05-10,299.0
1969-05-11,287.0
1969-05-12,270.0
1969-05-13,252.0
1969-05-14,232.0
1969-05-15,214.0
1969-05-16,191.0
1969-05-17,173.0
1969-05-18,159.0
1969-05-19,146.0
1969-05-20,136.0
1969-05-21,127.0
1969-05-22,118.0
1969-05-23,111.0
1969-05-24,104.0
1969-05-25,97.0
1969-05-26,91.0
1969-05-27,86.0
1969-05-28,82.0
1969-05-29,77.0
1969-05-30,72.0
1969-05-31,68.0
1969-06-01,65.0
1969-06-02,63.0
1969-06-03,60.0
1969-06-04,59.0
1969-06-05,57.0
1969-06-06,57.0
1969-06-07,57.0
1969-06-08,57.0
1969-06-09,54.0
1969-06-10,50.0
1969-06-11,48.0
1969-06-12,43.0
1969-06-13,39.0
1969-06-14,37.0
1969-06-15,40.0
1969-06-16,46.0
1969-06-17,43.0
1969-06-18,38.0
1969-06-19,35.0
1969-06-20,31.0
1969-06-21,28.0
1969-06-22,28.0
1969-06-23,28.0
1969-06-24,40.0
1969-06-25,36.0
1969-06-26,32.0
1969-06-27,29.0
1969-06-28,26.0
1969-06-29,24.0
1969-06-30,23.0
1969-07-01,22.0
1969-07-02,20.0
1969-07-03,19.0
1969-07-04,19.0
1969-07-05,19.0
1969-07-06,18.0
1969-07-07,18.0
1969-07-08,17.0
1969-07-09,18.0
1969-07-10,16.0
1969-07-11,15.0
1969-07-12,15.0
1969-07-13,15.0
1969-07-14,15.0
1969-07-15,14.0
1969-07-16,13.0
1969-07-17,13.0
1969-07-18,13.0
1969-07-19,13.0
1969-07-20,12.0
1969-07-21,13.0
1969-07-22,13.0
1969-07-23,12.0
1969-07-24,12.0
1969-07-25,13.0
1969-07-26,11.0
1969-07-27,10.0
1969-07-28,10.0
1969-07-29,12.0
1969-07-30,16.0
1969-07-31,12.0
1969-08-01,10.0
1969-08-02,9.7
1969-08-03,10.0
1969-08-04,9.3
1969-08-05,8.7
1969-08-06,8.0
1969-08-07,7.7
1969-08-08,7.3
1969-08-09,7.2
1969-08-10,8.3
1969-08-11,8.9
1969-08-12,8.7
1969-08-13,7.5
1969-08-14,6.9
1969-08-15,6.5
1969-08-16,7.8
1969-08-17,8.9
1969-08-18,9.9
1969-08-19,9.5
1969-08-20,8.7
1969-08-21,8.4
1969-08-22,8.5
1969-08-23,8.8
1969-08-24,7.8
1969-08-25,6.8
1969-08-26,6.5
1969-08-27,6.3
1969-08-28,6.4
1969-08-29,7.4
1969-08-30,7.4
1969-08-31,6.2
1969-09-01,5.4
1969-09-02,5.1
1969-09-03,5.8
1969-09-04,7.3
1969-09-05,5.8
1969-09-06,5.4
1969-09-07,5.0
1969-09-08,5.0
1969-09-09,6.3
1969-09-10,5.8
1969-09-11,6.8
1969-09-12,5.0
1969-09-13,5.4
1969-09-14,5.4
1969-09-15,5.4
1969-09-16,5.4
1969-09-17,5.4
1969-09-18,5.4
1969-09-19,5.4
1969-09-20,5.0
1969-09-21,5.4
1969-09-22,5.8
1969-09-23,5.4
1969-09-24,5.4
1969-09-25,5.4
1969-09-26,5.4
1969-09-27,5.4
1969-09-28,5.4
1969-09-29,5.0
1969-09-30,5.8
1969-10-01,5.6
1969-10-02,6.9
1969-10-03,7.6
1969-10-04,7.3
1969-10-05,7.6
1969-10-06,7.0
1969-10-07,6.1
1969-10-08,6.1
1969-10-09,5.8
1969-10-10,6.3
1969-10-11,7.0
1969-10-12,6.5
1969-10-13,6.3
1969-10-14,6.3
1969-10-15,7.1
1969-10-16,7.6
1969-10-17,8.7
1969-10-18,8.8
1969-10-19,8.1
1969-10-20,6.6
1969-10-21,7.4
1969-10-22,8.3
1969-10-23,8.3
1969-10-24,8.5
1969-10-25,8.5
1969-10-26,8.0
1969-10-27,7.5
1969-10-28,7.4
1969-10-29,7.8
1969-10-30,6.4
1969-10-31,6.5
1969-11-01,6.8
1969-11-02,6.3
1969-11-03,5.7
1969-11-04,5.9
1969-11-05,5.8
1969-11-06,5.7
1969-11-07,6.3
1969-11-08,5.7
1969-11-09,5.6
1969-11-10,5.5
1969-11-11,5.3
1969-11-12,5.3
1969-11-13,5.4
1969-11-14,5.3
1969-11-15,5.5
1969-11-16,5.5
1969-11-17,5.5
1969-11-18,5.5
1969-11-19,5.5
1969-11-20,5.5
1969-11-21,5.4
1969-11-22,5.4
1969-11-23,5.4
1969-11-24,5.4
1969-11-25,5.4
1969-11-26,5.4
1969-11-27,5.4
1969-11-28,5.4
1969-11-29,5.1
1969-11-30,5.0
1969-12-01,5.0
1969-12-02,5.0
1969-12-03,5.0
1969-12-04,5.0
1969-12-05,4.8
1969-12-06,4.6
1969-12-07,4.6
1969-12-08,4.6
1969-12-09,4.6
1969-12-10,4.6
1969-12-11,5.0
1969-12-12,5.2
1969-12-13,5.2
1969-12-14,5.2
1969-12-15,5.2
1969-12-16,5.2
1969-12-17,5.2
1969-12-18,5.2
1969-12-19,5.8
1969-12-20,6.6
1969-12-21,6.6
1969-12-22,6.6
1969-12-23,6.6
1969-12-24,6.6
1969-12-25,6.6
1969-12-26,6.6
1969-12-27,5.8
1969-12-28,5.2
1969-12-29,4.5
1969-12-30,4.7
1969-12-31,4.7
1970-01-01,4.3
1970-01-02,3.6
1970-01-03,3.0
1970-01-04,3.0
1970-01-05,3.0
1970-01-06,3.0
1970-01-07,3.0
1970-01-08,3.2
1970-01-09,3.5
1970-01-10,3.5
1970-01-11,3.5
1970-01-12,3.5
1970-01-13,3.5
1970-01-14,3.5
1970-01-15,3.5
1970-01-16,3.7
1970-01-17,3.7
1970-01-18,3.5
1970-01-19,3.5
1970-01-20,3.5
1970-01-21,3.5
1970-01-22,3.7
1970-01-23,3.9
1970-01-24,4.0
1970-01-25,4.0
1970-01-26,4.0
1970-01-27,4.0
1970-01-28,4.2
1970-01-29,4.4
1970-01-30,4.2
1970-01-31,4.2
1970-02-01,4.3
1970-02-02,4.5
1970-02-03,4.5
1970-02-04,4.5
1970-02-05,4.5
1970-02-06,4.5
1970-02-07,4.5
1970-02-08,4.5
1970-02-09,4.8
1970-02-10,5.3
1970-02-11,5.7
1970-02-12,6.2
1970-02-13,6.2
1970-02-14,5.7
1970-02-15,5.6
1970-02-16,5.6
1970-02-17,5.6
1970-02-18,5.6
1970-02-19,5.6
1970-02-20,5.6
1970-02-21,6.0
1970-02-22,6.0
1970-02-23,6.0
1970-02-24,6.0
1970-02-25,6.0
1970-02-26,6.0
1970-02-27,6.0
1970-02-28,6.0
1970-03-01,6.0
1970-03-02,6.0
1970-03-03,5.6
1970-03-04,5.6
1970-03-05,5.5
1970-03-06,5.6
1970-03-07,5.9
1970-03-08,6.0
1970-03-09,6.0
1970-03-10,6.0
1970-03-11,6.0
1970-03-12,6.0
1970-03-13,6.0
1970-03-14,6.3
1970-03-15,6.6
1970-03-16,6.7
1970-03-17,6.4
1970-03-18,6.4
1970-03-19,6.4
1970-03-20,6.4
1970-03-21,6.8
1970-03-22,7.3
1970-03-23,8.0
1970-03-24,9.0
1970-03-25,8.6
1970-03-26,8.4
1970-03-27,8.0
1970-03-28,8.0
1970-03-29,7.8
1970-03-30,7.8
1970-03-31,7.8
1970-04-01,8.4
1970-04-02,9.0
1970-04-03,9.0
1970-04-04,9.0
1970-04-05,10.0
1970-04-06,16.0
1970-04-07,23.0
1970-04-08,26.0
1970-04-09,24.0
1970-04-10,31.0
1970-04-11,32.0
1970-04-12,22.0
1970-04-13,18.0
1970-04-14,14.0
1970-04-15,11.0
1970-04-16,10.0
1970-04-17,16.0
1970-04-18,16.0
1970-04-19,16.0
1970-04-20,14.0
1970-04-21,15.0
1970-04-22,14.0
1970-04-23,13.0
1970-04-24,15.0
1970-04-25,21.0
1970-04-26,28.0
1970-04-27,33.0
1970-04-28,32.0
1970-04-29,28.0
1970-04-30,27.0
1970-05-01,27.0
1970-05-02,30.0
1970-05-03,44.0
1970-05-04,64.0
1970-05-05,81.0
1970-05-06,100.0
1970-05-07,115.0
1970-05-08,105.0
1970-05-09,114.0
1970-05-10,118.0
1970-05-11,115.0
1970-05-12,118.0
1970-05-13,130.0
1970-05-14,141.0
1970-05-15,146.0
1970-05-16,158.0
1970-05-17,177.0
1970-05-18,196.0
1970-05-19,205.0
1970-05-20,205.0
1970-05-21,184.0
1970-05-22,160.0
1970-05-23,147.0
1970-05-24,139.0
1970-05-25,128.0
1970-05-26,119.0
1970-05-27,108.0
1970-05-28,101.0
1970-05-29,93.0
1970-05-30,86.0
1970-05-31,78.0
1970-06-01,73.0
1970-06-02,65.0
1970-06-03,58.0
1970-06-04,53.0
1970-06-05,49.0
1970-06-06,48.0
1970-06-07,48.0
1970-06-08,48.0
1970-06-09,46.0
1970-06-10,58.0
1970-06-11,64.0
1970-06-12,52.0
1970-06-13,48.0
1970-06-14,45.0
1970-06-15,44.0
1970-06-16,42.0
1970-06-17,40.0
1970-06-18,39.0
1970-06-19,37.0
1970-06-20,36.0
1970-06-21,35.0
1970-06-22,34.0
1970-06-23,32.0
1970-06-24,31.0
1970-06-25,30.0
1970-06-26,28.0
1970-06-27,28.0
1970-06-28,27.0
1970-06-29,26.0
1970-06-30,25.0
1970-07-01,25.0
1970-07-02,24.0
1970-07-03,23.0
1970-07-04,22.0
1970-07-05,22.0
1970-07-06,21.0
1970-07-07,20.0
1970-07-08,18.0
1970-07-09,20.0
1970-07-10,20.0
1970-07-11,17.0
1970-07-12,18.0
1970-07-13,16.0
1970-07-14,14.0
1970-07-15,13.0
1970-07-16,12.0
1970-07-17,14.0
1970-07-18,13.0
1970-07-19,17.0
1970-07-20,12.0
1970-07-21,11.0
1970-07-22,12.0
1970-07-23,17.0
1970-07-24,12.0
1970-07-25,11.0
1970-07-26,12.0
1970-07-27,12.0
1970-07-28,11.0
1970-07-29,10.0
1970-07-30,9.9
1970-07-31,10.0
1970-08-01,9.8
1970-08-02,9.3
1970-08-03,9.1
1970-08-04,9.3
1970-08-05,10.0
1970-08-06,12.0
1970-08-07,9.3
1970-08-08,9.2
1970-08-09,8.6
1970-08-10,7.7
1970-08-11,7.2
1970-08-12,7.0
1970-08-13,6.9
1970-08-14,7.8
1970-08-15,7.1
1970-08-16,7.4
1970-08-17,7.1
1970-08-18,8.0
1970-08-19,7.2
1970-08-20,8.0
1970-08-21,8.5
1970-08-22,6.5
1970-08-23,5.8
1970-08-24,5.3
1970-08-25,4.9
1970-08-26,4.8
1970-08-27,6.3
1970-08-28,7.0
1970-08-29,6.4
1970-08-30,5.6
1970-08-31,5.0
1970-09-01,5.1
1970-09-02,4.8
1970-09-03,4.5
1970-09-04,4.4
1970-09-05,6.7
1970-09-06,11.0
1970-09-07,8.2
1970-09-08,6.5
1970-09-09,5.2
1970-09-10,4.9
1970-09-11,4.8
1970-09-12,4.8
1970-09-13,7.5
1970-09-14,5.4
1970-09-15,5.2
1970-09-16,4.9
1970-09-17,4.8
1970-09-18,4.8
1970-09-19,4.7
1970-09-20,4.7
1970-09-21,4.9
1970-09-22,5.3
1970-09-23,4.9
1970-09-24,4.9
1970-09-25,4.8
1970-09-26,4.8
1970-09-27,4.9
1970-09-28,5.1
1970-09-29,5.0
1970-09-30,5.1
1970-10-01,5.1
1970-10-02,5.0
1970-10-03,5.0
1970-10-04,5.1
1970-10-05,5.0
1970-10-06,8.0
1970-10-07,8.1
1970-10-08,6.6
1970-10-09,6.3
1970-10-10,13.0
1970-10-11,8.7
1970-10-12,7.1
1970-10-13,6.6
1970-10-14,6.1
1970-10-15,6.1
1970-10-16,5.7
1970-10-17,6.0
1970-10-18,5.8
1970-10-19,5.7
1970-10-20,5.5
1970-10-21,5.9
1970-10-22,6.2
1970-10-23,6.5
1970-10-24,7.2
1970-10-25,6.9
1970-10-26,6.0
1970-10-27,6.5
1970-10-28,9.1
1970-10-29,8.6
1970-10-30,8.3
1970-10-31,6.4
1970-11-01,6.2
1970-11-02,5.5
1970-11-03,5.3
1970-11-04,7.4
1970-11-05,5.5
1970-11-06,5.6
1970-11-07,6.2
1970-11-08,6.6
1970-11-09,6.3
1970-11-10,6.1
1970-11-11,5.6
1970-11-12,5.5
1970-11-13,5.5
1970-11-14,5.4
1970-11-15,5.4
1970-11-16,5.4
1970-11-17,5.3
1970-11-18,5.2
1970-11-19,5.2
1970-11-20,5.2
1970-11-21,5.1
1970-11-22,5.2
1970-11-23,5.1
1970-11-24,5.5
1970-11-25,6.0
1970-11-26,6.7
1970-11-27,6.8
1970-11-28,6.1
1970-11-29,8.7
1970-11-30,6.6
1970-12-01,9.0
1970-12-02,8.0
1970-12-03,7.5
1970-12-04,7.5
1970-12-05,7.6
1970-12-06,7.5
1970-12-07,7.5
1970-12-08,7.5
1970-12-09,7.5
1970-12-10,7.6
1970-12-11,7.2
1970-12-12,7.0
1970-12-13,6.7
1970-12-14,6.4
1970-12-15,6.2
1970-12-16,6.0
1970-12-17,5.7
1970-12-18,5.6
1970-12-19,5.6
1970-12-20,5.6
1970-12-21,5.6
1970-12-22,5.6
1970-12-23,5.6
1970-12-24,5.6
1970-12-25,5.6
1970-12-26,5.6
1970-12-27,5.6
1970-12-28,5.6
1970-12-29,5.6
1970-12-30,5.6
1970-12-31,5.6
1971-01-01,5.6
1971-01-02,5.6
1971-01-03,5.6
1971-01-04,5.6
1971-01-05,5.6
1971-01-06,5.6
1971-01-07,5.6
1971-01-08,5.6
1971-01-09,5.6
1971-01-10,5.6
1971-01-11,5.3
1971-01-12,5.2
1971-01-13,5.2
1971-01-14,5.2
1971-01-15,5.2
1971-01-16,5.2
1971-01-17,5.2
1971-01-18,5.2
1971-01-19,5.2
1971-01-20,5.2
1971-01-21,5.2
1971-01-22,5.2
1971-01-23,5.2
1971-01-24,5.2
1971-01-25,5.2
1971-01-26,5.2
1971-01-27,5.2
1971-01-28,5.2
1971-01-29,5.2
1971-01-30,5.2
1971-01-31,5.2
1971-02-01,5.2
1971-02-02,5.2
1971-02-03,5.2
1971-02-04,5.2
1971-02-05,5.2
1971-02-06,5.2
1971-02-07,5.2
1971-02-08,5.2
1971-02-09,5.2
1971-02-10,5.2
1971-02-11,5.2
1971-02-12,5.3
1971-02-13,5.7
1971-02-14,6.2
1971-02-15,6.5
1971-02-16,6.1
1971-02-17,5.8
1971-02-18,5.5
1971-02-19,5.3
1971-02-20,5.3
1971-02-21,5.3
1971-02-22,5.2
1971-02-23,5.2
1971-02-24,5.2
1971-02-25,5.2
1971-02-26,5.2
1971-02-27,5.2
1971-02-28,5.2
1971-03-01,5.2
1971-03-02,5.2
1971-03-03,5.2
1971-03-04,5.2
1971-03-05,5.2
1971-03-06,5.2
1971-03-07,5.2
1971-03-08,5.2
1971-03-09,5.2
1971-03-10,5.4
1971-03-11,5.7
1971-03-12,6.0
1971-03-13,6.4
1971-03-14,6.7
1971-03-15,7.0
1971-03-16,7.0
1971-03-17,7.0
1971-03-18,7.0
1971-03-19,7.0
1971-03-20,7.0
1971-03-21,7.0
1971-03-22,8.2
1971-03-23,10.0
1971-03-24,12.0
1971-03-25,14.0
1971-03-26,17.0
1971-03-27,38.0
1971-03-28,51.0
1971-03-29,54.0
1971-03-30,64.0
1971-03-31,72.0
1971-04-01,51.0
1971-04-02,48.0
1971-04-03,49.0
1971-04-04,49.0
1971-04-05,52.0
1971-04-06,59.0
1971-04-07,67.0
1971-04-08,64.0
1971-04-09,77.0
1971-04-10,89.0
1971-04-11,103.0
1971-04-12,107.0
1971-04-13,107.0
1971-04-14,108.0
1971-04-15,107.0
1971-04-16,116.0
1971-04-17,118.0
1971-04-18,114.0
1971-04-19,109.0
1971-04-20,105.0
1971-04-21,97.0
1971-04-22,93.0
1971-04-23,97.0
1971-04-24,97.0
1971-04-25,95.0
1971-04-26,95.0
1971-04-27,94.0
1971-04-28,93.0
1971-04-29,92.0
1971-04-30,97.0
1971-05-01,115.0
1971-05-02,142.0
1971-05-03,165.0
1971-05-04,174.0
1971-05-05,172.0
1971-05-06,169.0
1971-05-07,162.0
1971-05-08,160.0
1971-05-09,146.0
1971-05-10,140.0
1971-05-11,149.0
1971-05-12,155.0
1971-05-13,161.0
1971-05-14,163.0
1971-05-15,172.0
1971-05-16,187.0
1971-05-17,175.0
1971-05-18,156.0
1971-05-19,141.0
1971-05-20,130.0
1971-05-21,122.0
1971-05-22,117.0
1971-05-23,113.0
1971-05-24,107.0
1971-05-25,102.0
1971-05-26,99.0
1971-05-27,96.0
1971-05-28,94.0
1971-05-29,92.0
1971-05-30,93.0
1971-05-31,87.0
1971-06-01,80.0
1971-06-02,75.0
1971-06-03,70.0
1971-06-04,68.0
1971-06-05,65.0
1971-06-06,62.0
1971-06-07,59.0
1971-06-08,58.0
1971-06-09,58.0
1971-06-10,58.0
1971-06-11,55.0
1971-06-12,50.0
1971-06-13,46.0
1971-06-14,44.0
1971-06-15,41.0
1971-06-16,40.0
1971-06-17,39.0
1971-06-18,37.0
1971-06-19,36.0
1971-06-20,35.0
1971-06-21,33.0
1971-06-22,32.0
1971-06-23,31.0
1971-06-24,30.0
1971-06-25,30.0
1971-06-26,29.0
1971-06-27,28.0
1971-06-28,28.0
1971-06-29,26.0
1971-06-30,25.0
1971-07-01,23.0
1971-07-02,22.0
1971-07-03,21.0
1971-07-04,20.0
1971-07-05,19.0
1971-07-06,17.0
1971-07-07,16.0
1971-07-08,16.0
1971-07-09,16.0
1971-07-10,14.0
1971-07-11,13.0
1971-07-12,13.0
1971-07-13,12.0
1971-07-14,11.0
1971-07-15,11.0
1971-07-16,11.0
1971-07-17,10.0
1971-07-18,13.0
1971-07-19,13.0
1971-07-20,11.0
1971-07-21,9.6
1971-07-22,9.3
1971-07-23,9.5
1971-07-24,8.8
1971-07-25,8.5
1971-07-26,7.7
1971-07-27,7.5
1971-07-28,7.1
1971-07-29,6.9
1971-07-30,6.8
1971-07-31,6.3
1971-08-01,6.3
1971-08-02,5.8
1971-08-03,5.8
1971-08-04,5.8
1971-08-05,10.0
1971-08-06,9.1
1971-08-07,8.9
1971-08-08,8.1
1971-08-09,7.7
1971-08-10,7.6